Wind_Speed
41 40 40 39 38 36 35 35 36 38 39 39 39 39 38 38 38 39 40 39 39 38 39 40 41 42 43 43 44 44 44 44 44 43 43 42 41 40 40 38 36 33
44 44 43 43 42 41 40 39 39 40 41 40 40 39 39 39 40 41 41 41 41 41 41 42 43 44 44 45 45 45 45 45 44 44 44 43 42 42 41 40 38 35
45 45 45 45 46 46 46 44 42 43 43 43 42 41 40 42 42 42 43 42 42 42 42 43 44 45 45 45 46 46 45 45 45 44 44 44 43 43 43 42 41 38
46 46 46 47 47 48 48 47 45 45 45 46 46 45 44 45 46 46 46 45 44 43 43 43 44 45 46 46 46 46 46 46 45 45 44 44 44 45 44 44 43 42
44 45 46 46 46 47 47 46 45 45 46 47 48 48 47 47 47 47 47 47 46 45 44 45 45 46 47 47 47 47 47 46 46 45 45 45 45 45 46 46 45 44
43 44 46 46 46 46 45 43 43 43 44 45 46 46 46 46 46 46 46 47 47 47 47 47 48 48 48 48 47 47 47 46 46 45 45 46 46 47 48 48 47 46
45 46 47 47 47 46 46 46 46 46 46 46 46 45 45 45 45 46 47 47 48 49 49 49 49 49 49 49 48 48 48 47 47 47 47 48 49 50 50 50 49 48
46 43 43 44 45 47 48 48 49 50 50 49 48 47 46 45 46 46 47 47 48 49 49 49 50 50 50 49 49 49 50 51 51 51 51 51 52 52 51 50 49 48
43 42 40 39 40 41 42 42 44 46 47 47 47 47 46 45 45 45 46 46 47 48 49 50 51 52 52 52 53 54 55 55 55 55 54 53 52 51 50 49 49 48
35 36 37 37 37 37 38 39 42 44 44 44 45 46 46 45 45 44 44 45 47 48 50 52 53 53 54 55 56 57 57 56 56 55 54 52 51 50 51 52 52 52
29 31 33 36 38 39 39 40 42 43 43 43 44 46 47 48 48 46 45 45 46 48 49 50 51 52 53 54 55 55 54 54 54 53 52 51 52 54 55 55 55 54
36 36 36 38 40 40 39 39 40 41 41 42 44 45 48 49 49 49 48 48 49 50 51 50 49 49 50 50 51 51 51 51 51 51 53 55 57 59 59 58 57 56
44 45 46 43 42 44 44 42 42 43 43 43 44 45 47 49 50 53 55 56 58 59 57 54 52 51 49 50 51 51 50 50 52 54 57 59 61 62 62 62 62 61
46 48 50 48 46 47 48 47 46 47 46 46 46 48 48 49 51 53 55 57 60 61 59 57 57 56 56 57 57 55 54 55 57 59 60 61 61 62 62 63 63 64
50 52 53 53 52 52 51 52 51 51 51 50 51 53 53 53 53 54 54 56 57 58 57 56 56 57 58 58 58 58 58 59 60 60 60 61 62 63 64 65 66 67
55 57 59 59 59 59 59 60 60 59 59 59 59 60 60 58 57 57 58 59 59 59 58 57 57 57 58 59 59 59 58 58 60 62 64 66 67 68 69 70 70 71
58 60 61 63 63 64 65 66 67 67 66 66 66 66 65 64 61 60 62 63 64 64 63 61 61 61 61 61 60 59 59 61 65 68 70 72 73 73 73 74 74 74
59 61 62 62 63 63 64 65 67 68 69 69 70 70 69 70 69 68 66 66 67 69 70 68 67 67 65 62 61 61 63 67 72 74 76 77 77 77 77 76 76 76
60 62 62 63 64 64 64 64 65 67 69 69 69 69 68 71 73 73 73 73 73 75 75 71 67 66 65 63 64 66 70 74 77 79 80 80 79 79 78 77 76 76
61 61 61 62 63 63 62 63 64 66 68 69 70 71 73 75 77 78 79 80 77 72 68 64 62 63 65 67 70 74 77 81 82 82 82 81 80 79 78 77 77 76
61 62 62 62 62 63 63 63 64 66 69 71 73 74 74 73 75 77 75 72 68 63 61 63 65 68 71 74 77 80 82 84 85 84 82 81 79 78 78 78 78 78
62 63 63 63 63 65 66 66 66 67 69 71 71 71 68 65 66 69 67 65 65 66 68 72 74 76 78 80 82 84 85 86 85 83 82 80 79 78 78 78 79 79
67 68 69 70 70 71 72 72 71 70 69 70 69 68 67 66 66 68 69 71 73 75 77 79 81 83 84 86 87 88 87 85 83 81 80 79 78 77 77 78 78 78
75 75 76 77 77 77 76 74 73 72 72 73 73 73 73 74 74 74 76 77 78 80 81 84 86 88 90 91 91 89 87 84 82 80 79 78 77 76 75 76 77 77
82 81 80 79 78 76 75 73 72 72 73 75 78 79 80 81 81 82 82 82 83 85 86 88 91 92 92 91 90 89 87 85 83 82 80 79 77 76 75 76 77 78
85 84 83 82 81 79 78 76 76 76 76 78 80 82 84 85 86 87 88 89 90 91 91 92 92 91 91 90 90 89 89 87 86 85 83 81 79 77 77 77 78 79
Wind_Direction
270 272 275 277 279 279 279 278 276 275 275 275 276 278 278 278 277 278 281 283 285 285 285 285 285 285 285 286 287 289 290 291 293 295 297 299 301 303 305 305 304 302
269 270 273 275 276 277 279 279 279 277 277 277 278 279 280 279 278 278 281 283 283 284 283 283 283 284 284 286 287 288 289 290 292 294 295 297 299 300 300 301 300 300
269 271 273 275 276 277 278 279 279 278 277 278 278 279 280 280 279 280 281 282 282 281 280 280 281 281 283 285 287 288 289 290 292 293 294 296 297 297 297 298 298 297
272 274 275 276 277 277 277 277 278 279 280 280 281 280 280 281 281 281 281 282 281 280 279 279 280 281 283 285 286 287 288 289 291 292 293 294 294 295 295 296 296 295
277 277 277 278 278 278 279 280 281 282 282 281 281 281 280 280 280 280 280 280 280 279 279 279 280 281 282 284 284 285 287 288 290 291 292 292 293 293 294 294 294 295
282 280 277 277 278 279 279 280 281 281 279 278 277 278 278 278 278 278 278 277 277 277 277 278 279 280 281 282 283 284 286 287 288 289 290 291 291 292 292 293 294 294
284 282 276 274 275 275 275 275 275 276 276 276 277 277 276 276 275 275 275 275 275 276 276 277 278 279 280 281 283 284 285 286 286 287 288 289 289 290 291 293 294 294
285 283 278 275 274 273 273 273 273 274 276 277 278 278 277 276 274 274 274 274 275 275 276 277 277 278 280 281 282 282 283 283 284 285 286 287 289 290 292 293 294 294
283 281 278 276 274 272 271 272 273 274 276 277 278 278 277 275 273 272 272 273 273 273 274 275 276 277 278 279 280 281 281 283 284 285 286 288 290 292 293 294 294 294
278 278 276 270 266 266 267 270 273 275 276 276 276 275 274 273 272 271 270 270 270 271 272 273 275 277 278 279 279 280 282 283 284 286 287 289 291 292 293 294 295 295
267 276 276 268 263 263 267 270 273 275 274 274 274 273 272 272 273 272 272 271 271 271 273 275 277 278 279 279 280 280 281 282 283 284 286 289 291 292 294 296 296 295
260 269 270 267 264 263 263 265 268 271 273 274 274 273 273 273 275 276 276 276 276 277 277 279 280 281 280 279 279 279 279 279 280 283 287 291 293 295 297 297 296 295
260 263 263 263 263 263 260 259 262 266 269 272 272 273 275 275 276 278 278 278 278 279 280 280 280 281 281 280 280 279 278 279 282 287 291 294 296 297 298 298 298 298
252 256 259 259 259 259 258 257 259 263 265 267 269 272 274 275 277 279 279 277 277 277 277 277 277 277 278 280 281 280 280 283 287 291 293 294 295 296 297 297 298 298
246 250 254 255 256 256 257 258 259 261 262 263 266 269 271 272 274 277 278 279 279 278 277 276 275 275 277 279 280 281 283 287 290 291 292 293 293 294 294 295 295 295
251 252 253 254 255 256 258 260 261 262 261 262 265 267 269 269 270 272 274 275 277 279 280 280 278 278 279 280 281 282 286 289 291 292 292 293 293 293 293 294 294 294
254 255 256 256 258 259 260 262 263 264 263 263 263 265 266 266 267 268 269 270 271 274 277 278 278 277 278 278 279 281 284 288 290 292 292 293 293 293 294 294 294 294
253 253 255 256 259 260 262 263 264 264 264 263 264 265 266 266 265 266 267 267 268 269 272 274 273 274 274 275 276 279 283 286 289 291 292 292 292 293 294 294 294 294
252 253 254 255 257 259 261 262 263 263 263 263 265 267 268 269 268 267 266 267 268 270 273 273 271 269 270 272 275 279 283 287 290 291 292 292 293 293 293 293 293 293
251 253 254 254 255 257 259 259 259 260 261 262 264 267 270 271 270 268 267 268 271 272 271 270 268 267 269 273 277 281 284 287 290 291 292 292 292 292 292 291 291 290
248 251 253 254 255 255 257 258 259 260 262 264 267 269 270 270 269 270 270 271 271 270 267 266 268 270 272 275 278 281 284 287 289 289 290 290 289 289 289 288 288 288
247 249 251 253 254 255 257 259 262 264 264 264 265 266 266 266 268 270 272 272 271 271 271 272 273 274 276 278 280 283 285 286 287 287 287 287 286 286 286 286 286 286
251 251 252 254 256 258 260 261 262 263 262 260 260 261 261 263 265 267 269 271 272 273 274 276 277 278 280 281 283 284 284 284 284 284 284 284 284 284 284 284 284 284
257 257 258 260 261 262 263 263 262 261 260 258 259 259 260 261 263 264 266 268 270 272 274 276 278 280 281 282 282 282 282 282 281 281 281 281 281 281 281 281 282 282
260 261 262 263 263 263 263 263 263 262 261 260 259 260 261 262 262 263 265 266 268 270 272 274 277 279 280 280 280 280 280 279 279 279 279 279 279 278 278 279 279 279
261 262 263 264 264 264 264 264 264 264 263 263 263 263 263 263 264 264 265 266 267 269 270 272 274 275 276 277 278 279 279 279 278 278 277 277 276 276 276 276 277 277
Height
10630 10631 10631 10630 10630 10631 10631 10631 10631 10630 10629 10630 10631 10632 10633 10635 10635 10635 10635 10635 10636 10636 10635 10635 10636 10636 10637 10637 10638 10638 10638 10638 10638 10638 10637 10637 10637 10636 10636 10636 10636 10636
10626 10626 10626 10626 10626 10626 10626 10627 10627 10625 10624 10625 10626 10628 10628 10628 10629 10629 10630 10630 10630 10630 10630 10630 10630 10631 10631 10632 10632 10632 10632 10632 10632 10632 10632 10632 10632 10631 10631 10631 10631 10631
10621 10621 10621 10621 10621 10621 10621 10622 10622 10620 10619 10619 10621 10623 10624 10623 10623 10624 10624 10624 10624 10625 10625 10625 10625 10625 10626 10626 10626 10626 10626 10626 10627 10627 10627 10626 10626 10625 10625 10625 10626 10626
10616 10616 10615 10615 10615 10615 10615 10615 10616 10615 10613 10613 10614 10616 10618 10617 10617 10618 10618 10618 10618 10618 10619 10619 10619 10619 10620 10620 10620 10620 10620 10620 10621 10621 10621 10621 10620 10620 10619 10620 10620 10621
10611 10610 10609 10609 10609 10608 10608 10609 10610 10609 10608 10607 10607 10608 10610 10611 10611 10612 10612 10612 10612 10612 10613 10613 10614 10614 10614 10614 10614 10615 10615 10615 10615 10615 10615 10615 10614 10614 10614 10614 10614 10614
10606 10605 10604 10604 10603 10602 10602 10603 10604 10603 10602 10602 10602 10602 10604 10604 10605 10605 10606 10606 10607 10607 10607 10608 10608 10608 10608 10609 10609 10610 10610 10610 10610 10610 10610 10609 10609 10609 10608 10608 10608 10608
10599 10599 10598 10597 10597 10596 10596 10597 10598 10597 10597 10597 10597 10598 10598 10599 10599 10600 10600 10601 10601 10601 10602 10602 10602 10603 10603 10604 10604 10605 10605 10605 10604 10605 10605 10604 10604 10604 10604 10603 10603 10602
10593 10592 10591 10591 10591 10590 10589 10590 10591 10590 10591 10591 10592 10593 10593 10593 10594 10594 10595 10596 10596 10596 10596 10596 10596 10597 10598 10599 10599 10599 10599 10598 10598 10599 10600 10599 10599 10599 10598 10598 10597 10597
10587 10586 10585 10585 10585 10583 10583 10583 10583 10584 10585 10586 10586 10587 10587 10588 10588 10589 10590 10591 10591 10591 10591 10591 10591 10592 10593 10594 10593 10593 10592 10592 10592 10592 10593 10593 10593 10593 10592 10591 10591 10591
10580 10580 10580 10579 10579 10578 10578 10578 10578 10579 10580 10580 10580 10580 10581 10582 10583 10584 10584 10585 10585 10585 10585 10585 10586 10587 10588 10587 10587 10586 10585 10585 10585 10585 10586 10587 10587 10587 10586 10585 10585 10585
10576 10575 10575 10574 10574 10574 10575 10575 10575 10574 10574 10574 10574 10574 10575 10576 10577 10578 10579 10579 10579 10579 10579 10580 10581 10582 10581 10580 10580 10580 10580 10580 10579 10579 10580 10581 10582 10581 10580 10579 10579 10579
10575 10573 10571 10569 10571 10572 10573 10572 10572 10571 10571 10570 10569 10569 10569 10570 10571 10572 10573 10573 10572 10573 10574 10575 10576 10576 10575 10574 10575 10575 10575 10575 10574 10574 10574 10573 10573 10573 10573 10573 10573 10572
10575 10571 10566 10566 10569 10570 10569 10569 10569 10568 10568 10566 10564 10564 10563 10564 10565 10566 10566 10566 10566 10566 10569 10570 10570 10570 10569 10569 10569 10569 10569 10568 10568 10568 10567 10565 10564 10563 10564 10564 10563 10563
10573 10568 10564 10564 10566 10565 10565 10566 10565 10564 10564 10562 10560 10559 10558 10559 10559 10559 10559 10559 10559 10560 10562 10563 10563 10563 10563 10563 10563 10562 10562 10561 10561 10561 10559 10558 10557 10555 10555 10554 10553 10552
10568 10565 10563 10562 10561 10560 10561 10561 10561 10560 10559 10557 10555 10554 10554 10554 10554 10554 10552 10551 10550 10551 10553 10555 10555 10555 10555 10555 10555 10554 10553 10553 10553 10553 10552 10551 10550 10549 10548 10547 10546 10544
10562 10560 10559 10558 10557 10556 10556 10556 10556 10556 10555 10554 10552 10550 10550 10549 10549 10550 10549 10546 10544 10543 10544 10545 10547 10547 10547 10547 10547 10547 10545 10545 10544 10544 10544 10543 10542 10541 10540 10539 10538 10537
10556 10554 10553 10552 10552 10552 10552 10551 10551 10551 10551 10550 10548 10546 10545 10545 10545 10545 10544 10543 10541 10539 10539 10539 10539 10540 10541 10541 10540 10540 10539 10537 10536 10535 10535 10534 10533 10532 10531 10530 10529 10528
10549 10548 10547 10547 10547 10547 10547 10547 10546 10545 10545 10543 10542 10540 10540 10540 10540 10539 10538 10537 10536 10535 10534 10534 10533 10533 10533 10534 10533 10533 10531 10530 10530 10528 10527 10526 10525 10524 10523 10521 10520 10518
10541 10541 10542 10542 10542 10541 10542 10542 10540 10539 10538 10537 10536 10535 10534 10533 10533 10532 10531 10530 10530 10529 10527 10527 10527 10526 10526 10526 10525 10525 10524 10523 10522 10520 10519 10517 10516 10515 10514 10512 10511 10510
10536 10535 10536 10536 10536 10535 10535 10535 10534 10533 10531 10531 10530 10529 10528 10527 10524 10523 10523 10523 10523 10523 10521 10519 10520 10520 10520 10519 10518 10517 10516 10515 10514 10513 10511 10509 10508 10506 10505 10503 10502 10501
10531 10530 10530 10530 10529 10529 10528 10527 10527 10527 10525 10524 10523 10522 10521 10519 10513 10511 10514 10516 10515 10514 10513 10512 10512 10513 10513 10512 10511 10510 10509 10508 10507 10506 10504 10503 10501 10499 10497 10495 10493 10492
10526 10525 10524 10523 10522 10522 10522 10521 10520 10520 10518 10517 10516 10514 10512 10510 10505 10501 10503 10506 10506 10506 10504 10503 10502 10503 10503 10503 10503 10502 10502 10501 10500 10499 10498 10496 10494 10493 10490 10487 10485 10483
10519 10519 10517 10516 10514 10513 10513 10513 10513 10513 10511 10510 10509 10507 10504 10503 10501 10498 10496 10497 10497 10496 10495 10493 10491 10491 10492 10492 10492 10492 10493 10492 10492 10491 10490 10489 10487 10485 10482 10479 10477 10475
10508 10509 10508 10506 10505 10504 10503 10504 10504 10504 10503 10502 10501 10500 10498 10496 10495 10493 10491 10490 10490 10489 10488 10486 10483 10481 10481 10481 10481 10481 10482 10482 10482 10482 10481 10481 10480 10478 10475 10471 10469 10467
10495 10496 10496 10496 10496 10495 10495 10495 10495 10494 10494 10494 10493 10492 10490 10489 10488 10487 10486 10485 10484 10482 10481 10479 10476 10474 10472 10471 10470 10470 10470 10471 10472 10472 10472 10472 10471 10470 10467 10464 10460 10458
10484 10484 10484 10484 10485 10485 10486 10486 10486 10486 10485 10484 10484 10483 10482 10481 10480 10479 10478 10477 10476 10474 10473 10472 10470 10467 10464 10461 10460 10459 10458 10459 10459 10460 10461 10462 10463 10462 10459 10455 10451 10449